Location: El Mouella
(16.4949°N, 9.1594°W)
Time: 02:46:30
(UTC+00:00)

H-2A R/B - Pass Details

Date: 29 September 2020
Orbit: 734 x 836 km, 98.2° (Epoch: 20 October)

Event Time Altitude Azimuth Distance (km) Brightness Sun altitude
Exits shadow 20:07:45 35° 172° (S) 1,188 2.8 -25.0°
Maximum altitude 20:09:53 85° 257° (WSW) 757 1.9 -25.5°
Drops below altitude 10° 20:14:57 10° 347° (NNW) 2,298 4.7 -26.7°
Sets 20:17:17 0° 348° (NNW) 3,241 5.5 -27.3°
